Location: Unspecified
(0.0000°N, 0.0000°E)
Time: 16:47:38
(UTC+00:00)

Relay 1 - Visible Passes

Search period start: 22 July 2024 00:00
Search period end: 01 August 2024 00:00
Orbit: 1317 x 7440 km, 47.5° (Epoch: 21 July)

Date Brightness Start Highest point End Pass type
(mag) Time Alt. Az. Time Alt. Az. Time Alt. Az.
22 Jul ? 17:42:41 10° SSW 18:23:52 62° SE 18:40:52 10° NE visible
22 Jul ? 21:21:45 10° WSW 21:41:51 29° WNW 21:52:26 10° N visible
23 Jul ? 04:31:16 10° NNE 04:35:56 13° ENE 04:41:54 10° E visible
23 Jul ? 18:29:16 10° SW 19:08:29 84° SE 19:23:51 10° NE visible
23 Jul ? 22:16:29 10° W 22:24:29 13° WNW 22:30:27 10° NNW visible
24 Jul ? 05:09:23 10° N 05:18:17 29° ENE 05:34:30 10° ESE visible
24 Jul ? 19:16:43 10° SW 19:51:57 70° WNW 20:06:03 10° NNE visible
25 Jul ? 20:05:38 10° SW 20:34:37 46° WNW 20:47:27 10° NNE visible
26 Jul ? 20:56:57 10° WSW 21:17:01 26° WNW 21:27:51 10° N visible
27 Jul ? 04:06:01 10° NNE 04:11:24 15° ENE 04:18:39 10° E visible
27 Jul ? 18:02:51 10° SW 18:43:33 90° SE 18:59:40 10° NE visible
27 Jul ? 21:53:39 10° WNW 21:59:54 12° WNW 22:04:52 10° NW visible
28 Jul ? 04:44:53 10° N 04:53:38 32° ENE 05:09:49 10° ESE visible
28 Jul ? 18:50:36 10° SW 19:26:58 65° WNW 19:41:43 10° NNE visible
29 Jul ? 05:25:47 10° NNW 05:35:45 56° ENE 05:58:04 10° SE visible
29 Jul ? 19:40:02 10° SW 20:09:38 42° WNW 20:23:01 10° N visible
30 Jul ? 20:32:16 10° WSW 20:52:11 24° WNW 21:03:13 10° N visible
31 Jul ? 03:41:01 10° NNE 03:46:53 17° ENE 03:55:06 10° E visible
31 Jul ? 17:36:28 10° SW 18:18:32 85° NW 18:35:25 10° NE visible
31 Jul ? 21:31:52 10° WNW 21:35:20 11° WNW 21:38:23 10° NW visible
